Wind_Speed
57 55 57 61 65 66 66 69 74 78 82 86 86 81 76 73 69 64 61 58 53 47 43 39 35 31 28 25 22 20 18 16 15 14 14 14 14 15 16 17 19 21 23 25 28 30 32 34 36 38 39 40 41 42 43 44 44 41 39 36 35 33 33 32 33 33 34 34 34 34 35 34 34 33 32 31 32 34 35 35 34 34 34 34 34 33 32 31
56 55 59 63 64 64 67 72 76 80 84 85 80 74 71 66 61 57 54 49 43 39 36 31 27 23 20 17 15 13 11 10 8 7 7 7 8 10 11 13 14 16 18 20 22 25 27 30 32 34 37 38 39 40 41 40 38 35 34 33 33 32 32 32 32 32 32 33 33 34 35 34 34 32 31 32 34 35 35 34 34 34 35 34 34 34 33 31
55 57 59 60 60 63 69 73 77 81 83 79 73 69 64 58 53 50 45 39 35 32 28 23 20 17 16 14 12 11 9 7 5 3 1 1 3 5 7 9 10 12 14 15 18 20 23 26 29 32 34 36 37 37 37 36 34 34 34 33 33 33 32 32 31 31 31 32 33 35 35 34 33 31 31 32 34 35 35 34 34 35 35 35 34 33 32 31
54 55 56 57 61 65 69 73 78 80 77 71 67 62 55 50 46 41 36 32 29 26 22 19 18 17 16 15 14 13 11 10 9 7 6 5 5 5 7 8 9 10 11 13 14 17 19 22 25 27 30 31 33 33 33 33 33 33 33 33 33 32 32 32 31 32 33 34 34 34 34 33 31 29 30 32 34 35 34 34 35 35 35 35 34 33 32 31
53 53 54 59 62 66 69 74 77 74 69 65 60 53 47 43 39 33 29 27 24 22 20 18 19 19 18 18 17 17 17 16 15 13 11 9 8 8 9 10 10 11 11 11 12 13 14 16 18 20 22 25 26 27 28 30 31 32 32 32 31 31 31 31 31 32 33 33 33 32 32 31 30 29 30 31 33 34 34 34 35 36 36 35 34 33 32 30
51 52 55 59 62 65 70 72 71 66 62 58 52 45 40 36 32 28 25 24 22 21 19 19 21 22 21 20 20 20 21 23 22 20 17 14 12 11 11 11 12 13 14 14 14 14 14 14 15 16 18 20 22 24 25 27 29 29 30 29 29 30 30 31 30 30 31 31 30 30 31 31 29 28 29 30 31 33 34 34 35 36 36 36 35 33 31 30
49 52 56 59 61 65 68 67 62 59 55 50 44 38 34 31 28 25 23 22 22 21 19 20 23 25 25 24 23 23 24 25 25 25 24 23 20 17 14 12 11 11 11 13 14 16 17 18 19 19 21 22 23 25 26 27 27 28 28 28 29 30 30 30 29 28 28 28 28 28 29 28 26 26 28 29 30 31 32 33 33 35 36 36 34 32 30 29
48 52 55 57 61 64 63 59 55 52 47 42 37 32 29 28 27 25 23 22 22 22 21 21 24 27 29 28 27 27 27 26 24 25 27 27 26 24 22 19 16 14 12 10 10 11 13 15 17 18 19 19 20 22 23 24 25 26 27 28 29 29 28 26 24 23 24 25 25 25 25 25 24 25 27 28 29 30 31 30 30 32 34 33 32 31 29 28
47 51 53 56 60 60 56 51 48 44 40 36 31 27 26 26 26 25 25 24 24 24 24 25 25 27 30 30 30 31 31 29 28 28 27 27 27 26 26 24 22 21 18 15 13 11 10 9 10 12 12 13 14 16 18 19 21 22 24 25 26 25 22 19 17 19 20 21 22 23 23 22 23 24 25 26 28 28 28 28 28 29 30 30 30 30 29 28
47 49 52 55 56 53 48 45 41 37 34 31 27 24 24 25 26 26 26 27 26 27 28 28 28 27 29 30 30 33 33 32 32 31 29 28 26 26 25 24 23 22 21 18 16 13 11 10 9 9 9 10 10 11 13 15 16 17 18 20 21 18 15 15 16 18 20 20 21 21 21 21 22 22 23 24 25 25 25 26 26 26 27 28 28 29 28 28
45 48 51 52 49 45 42 38 34 31 29 26 24 23 24 26 27 27 27 28 28 29 31 32 32 32 31 30 31 32 33 33 33 32 30 29 28 27 26 25 23 22 20 18 16 14 12 9 8 7 6 6 7 9 10 12 13 14 15 18 18 14 14 17 20 22 22 21 20 20 20 20 22 21 21 22 22 21 22 23 23 24 25 26 27 28 28 28
44 46 48 45 41 39 36 32 29 27 24 23 23 24 26 27 28 27 28 28 29 30 32 34 35 35 35 33 33 33 32 32 32 31 30 29 29 27 26 26 24 22 20 17 15 13 11 9 7 5 3 3 5 7 9 12 13 14 15 17 16 14 18 21 22 23 21 20 20 20 20 20 20 20 19 21 20 18 19 19 20 22 23 25 27 27 27 27
42 44 42 38 36 34 30 27 26 23 22 22 24 27 29 30 30 29 29 29 30 31 32 33 35 37 37 37 36 34 34 33 32 32 31 30 29 28 27 27 25 22 20 17 15 12 10 8 6 4 2 1 4 7 9 11 12 13 14 15 15 16 20 21 20 21 19 18 19 20 21 21 20 20 19 20 19 17 17 17 18 20 22 24 25 26 26 26
41 40 35 32 31 28 24 24 23 21 21 24 28 30 32 33 33 33 32 31 32 33 34 34 35 36 38 38 37 36 35 34 34 33 32 32 31 30 29 28 26 23 21 18 16 14 11 9 7 5 3 3 5 7 9 10 11 13 15 15 15 17 20 20 19 19 17 17 19 21 22 21 21 21 19 20 19 16 16 17 18 19 21 22 23 23 24 24
37 33 29 28 26 22 22 22 22 21 23 28 31 33 35 36 37 37 37 36 36 36 38 38 38 39 39 39 39 39 38 36 35 34 33 32 31 30 29 27 26 25 23 21 18 16 14 12 10 8 6 4 3 5 7 8 10 12 14 14 15 17 19 21 20 19 18 18 20 22 23 22 22 22 21 21 19 16 17 18 17 18 18 18 18 18 19 21
31 27 24 24 20 18 21 22 22 23 26 31 33 36 38 39 40 40 41 41 40 40 41 42 42 43 43 43 43 43 42 41 39 38 36 34 32 31 29 29 27 26 25 22 19 17 15 13 12 10 8 6 5 5 5 5 7 9 11 12 13 14 16 19 19 19 19 19 21 23 23 23 24 24 23 22 20 18 18 17 14 13 13 11 12 14 16 19
25 22 21 19 15 16 20 22 23 26 29 33 36 38 40 42 43 43 44 44 43 43 44 44 45 46 46 45 46 46 45 44 43 41 40 38 37 35 34 33 31 30 28 25 23 21 19 18 17 16 15 14 13 12 11 9 8 9 10 10 11 12 14 16 17 16 17 19 21 22 22 23 24 25 24 23 20 18 16 13 10 10 8 6 7 10 14 17
20 19 18 15 12 16 20 22 25 28 31 34 37 40 42 44 45 45 46 46 46 46 46 46 47 48 47 47 48 47 46 45 44 42 41 40 40 39 39 38 36 35 34 31 29 28 26 25 24 22 21 20 19 18 17 16 14 13 13 12 11 12 14 16 16 15 15 17 19 21 22 23 24 24 24 23 21 17 13 10 10 10 9 9 11 13 14 15
16 16 14 10 11 16 20 23 26 29 32 36 39 41 43 45 47 47 47 47 48 48 48 48 49 49 49 49 48 48 47 46 45 44 44 43 43 43 42 41 40 39 38 36 35 33 32 31 29 28 27 25 24 23 22 21 19 18 16 15 13 11 13 16 17 16 15 17 18 19 20 20 22 22 22 22 19 15 13 12 12 12 13 15 17 18 16 15
14 13 10 8 11 16 20 23 27 30 33 36 39 41 43 46 47 48 48 48 49 49 48 49 50 50 49 49 49 48 48 48 47 46 46 46 46 46 45 44 43 42 41 40 39 37 36 35 33 32 30 29 28 27 25 23 22 20 18 17 15 12 11 15 18 17 16 17 18 19 18 17 19 20 20 19 16 14 14 14 11 10 13 14 15 16 16 17
11 10 7 8 12 16 20 23 27 30 33 36 38 40 42 45 46 47 48 48 48 49 48 49 50 49 49 49 49 50 49 49 48 48 47 47 47 46 46 45 45 44 43 42 41 41 40 38 37 35 34 32 31 29 28 25 23 22 18 16 15 13 11 13 16 18 18 18 19 19 17 15 16 19 19 18 16 15 16 15 11 8 11 11 11 11 15 20
8 7 6 8 13 16 20 23 26 29 32 34 36 38 40 42 44 46 47 46 46 47 47 47 48 48 49 49 49 50 49 49 49 48 47 47 46 46 45 45 45 44 44 44 43 43 43 42 41 40 39 38 36 34 31 27 24 23 21 18 15 13 12 12 14 17 19 19 19 19 17 16 16 18 20 21 21 20 17 14 10 6 10 14 14 15 21 25
6 6 6 9 13 16 19 22 24 26 29 31 33 35 37 40 42 44 44 44 43 44 44 45 46 46 46 47 47 49 48 47 48 47 47 46 46 45 45 45 46 46 46 46 45 44 44 43 42 42 42 41 40 39 36 32 27 24 22 20 17 15 13 12 13 17 20 21 20 19 18 18 19 20 23 25 26 25 19 14 10 13 18 23 22 21 25 28
4 5 8 10 13 16 18 20 22 24 27 29 30 32 35 38 40 41 42 41 41 41 42 42 42 42 43 44 45 46 46 45 46 45 45 45 45 45 46 46 47 47 47 46 45 44 44 43 43 43 43 43 43 43 43 41 37 31 27 23 20 16 11 10 12 16 20 22 21 19 20 21 22 24 26 29 31 30 23 16 18 27 30 30 31 28 26 28
3 6 9 11 14 16 17 19 20 22 24 26 28 30 33 35 37 38 39 39 39 38 39 39 39 39 41 42 43 43 42 42 43 42 43 43 44 44 44 44 45 44 44 44 44 44 44 45 45 45 45 46 46 47 47 47 45 42 37 32 28 22 13 6 5 9 16 21 22 20 21 23 25 26 29 34 35 35 30 24 29 37 37 36 37 37 32 31
3 6 9 11 14 15 16 18 19 21 23 25 27 29 31 33 34 36 37 37 36 36 36 37 37 37 39 40 40 39 39 40 40 39 40 40 41 41 41 40 40 41 41 42 43 43 44 45 46 46 47 48 49 50 51 51 50 49 46 42 37 31 23 13 6 4 7 15 20 22 22 22 25 26 30 37 38 37 36 34 37 41 41 40 39 39 36 34
5 7 8 11 13 14 16 17 18 20 21 24 26 28 30 31 33 34 35 34 34 34 35 35 35 36 37 37 37 37 37 37 37 37 37 37 37 37 37 37 38 38 39 40 40 41 42 43 44 46 48 50 51 52 54 54 53 53 52 50 45 40 33 24 16 12 9 10 17 22 22 20 23 27 31 37 38 38 39 38 41 43 44 43 42 42 40 37
6 7 8 10 12 13 14 16 17 19 21 23 26 27 29 30 32 33 33 32 32 33 34 34 34 35 35 35 35 35 35 35 35 36 35 35 34 34 34 35 35 36 37 38 39 39 40 41 43 45 47 49 51 53 54 55 55 55 55 55 52 47 42 36 30 23 18 15 16 21 23 22 23 26 30 35 37 38 40 41 43 46 46 45 46 46 45 42
7 7 7 9 10 12 13 15 17 18 20 22 24 26 28 29 30 31 31 31 31 32 32 33 33 33 33 34 34 34 34 34 35 35 34 34 33 33 33 33 34 35 37 37 37 38 40 41 43 44 46 47 49 50 51 54 55 56 57 57 56 53 49 45 41 37 31 24 18 16 19 21 22 25 27 32 35 38 41 43 45 47 47 47 48 49 49 48
8 7 7 8 9 11 12 14 16 18 19 21 23 25 27 28 29 30 30 29 30 31 31 31 31 31 31 32 32 32 32 33 34 33 33 33 33 33 33 33 34 35 36 37 37 38 39 41 42 43 44 44 45 47 49 52 54 56 57 58 58 56 54 51 49 46 43 37 30 23 16 12 14 19 24 27 32 36 39 42 46 48 48 48 51 52 53 52
8 8 8 8 9 10 11 13 15 16 18 20 22 23 25 27 28 29 29 29 30 32 32 31 31 30 31 31 30 30 31 32 32 32 31 31 32 32 32 33 34 35 35 36 37 37 38 39 40 41 41 42 43 44 46 48 51 53 54 56 57 57 57 55 54 51 48 44 39 33 27 20 15 13 15 19 25 31 35 39 42 45 46 48 50 53 54 54
9 9 8 8 8 9 11 13 14 15 17 19 21 23 25 26 27 28 28 29 31 32 33 33 32 32 32 31 30 30 30 31 31 31 31 31 31 31 32 32 33 33 34 34 35 36 37 37 38 39 39 40 41 42 43 45 48 49 50 52 54 55 57 57 56 54 52 49 44 40 35 30 25 19 15 12 13 19 25 31 36 39 42 44 47 51 54 55
10 10 9 9 9 9 10 12 13 14 16 18 20 21 23 25 25 26 26 27 29 31 32 32 33 34 33 32 31 31 31 31 30 30 30 30 30 30 30 31 32 32 33 33 34 35 36 36 37 37 37 38 39 40 42 44 46 47 48 49 50 51 54 55 56 56 54 51 48 44 41 36 32 28 23 18 13 9 10 14 20 26 32 37 41 46 50 53
11 11 10 10 10 9 10 11 13 14 15 16 18 20 21 23 23 24 24 25 28 29 30 30 31 32 33 33 32 32 32 31 31 30 30 29 29 29 30 30 31 31 32 32 32 33 34 34 35 35 36 37 39 40 41 42 44 45 46 47 48 49 50 52 53 53 53 52 49 47 44 40 37 33 29 25 21 16 12 7 5 9 15 22 29 35 41 45
12 12 12 11 11 10 10 11 12 13 13 14 15 17 18 20 20 21 21 23 25 27 27 28 29 29 30 30 30 31 31 32 31 31 31 31 30 29 29 29 29 30 30 31 31 31 32 32 33 34 36 37 38 39 40 41 42 43 44 45 46 46 47 49 49 50 50 50 49 48 46 43 41 38 34 31 27 23 19 15 11 6 1 5 12 18 24 30
14 13 13 12 11 11 10 10 11 12 12 12 12 14 15 17 18 18 18 20 22 23 24 25 26 26 27 27 28 29 30 31 31 32 32 32 31 30 29 29 29 29 29 30 30 31 31 32 33 34 35 36 37 38 39 40 41 41 42 43 43 44 45 46 46 46 46 47 47 47 46 45 44 42 39 36 33 29 26 22 19 16 13 10 7 7 10 14
14 14 14 13 12 11 10 10 9 10 10 10 10 12 14 15 16 16 16 18 19 20 22 22 23 24 25 25 26 27 28 29 30 30 31 30 30 30 30 30 30 29 29 29 30 30 30 31 32 33 34 35 36 38 39 40 40 40 41 41 41 42 42 43 43 43 43 44 44 45 45 45 44 44 42 41 38 36 33 29 27 25 23 21 19 17 15 14
15 15 15 15 14 12 11 10 9 9 9 9 9 10 12 13 14 15 15 16 17 18 19 20 21 22 23 24 25 26 27 28 28 29 29 30 30 30 30 30 30 31 31 30 30 30 30 30 31 32 33 34 35 36 38 39 39 40 40 40 40 40 41 41 41 41 41 41 42 42 43 43 44 44 44 43 42 41 39 37 35 33 32 30 29 27 25 24
17 16 16 16 15 14 12 11 10 9 8 8 7 7 9 11 12 13 14 15 17 18 18 18 19 19 21 22 23 24 25 26 27 27 28 29 29 29 30 30 30 31 31 31 31 31 31 31 31 31 32 33 34 35 36 37 37 39 39 40 40 40 40 40 39 39 39 39 40 40 41 42 42 43 44 45 45 45 44 43 42 41 39 38 37 36 35 33
18 17 17 17 16 15 14 12 10 9 8 8 7 5 6 7 9 10 11 13 15 16 17 17 17 17 18 19 20 21 23 24 25 26 27 28 28 29 29 30 30 30 30 30 31 31 31 31 31 31 31 32 33 34 34 35 36 37 38 39 39 40 40 40 39 39 38 38 39 39 40 40 41 43 44 45 46 46 46 46 46 45 44 44 43 42 41 40
20 19 18 18 17 16 15 13 11 10 9 8 7 5 4 4 5 7 8 10 12 13 14 15 15 15 16 17 18 20 21 23 24 25 26 27 27 28 29 29 30 30 30 31 31 31 31 31 31 31 31 31 32 32 32 33 34 36 37 38 39 39 40 40 40 39 39 38 38 38 39 40 41 42 43 44 45 46 47 47 47 47 47 47 46 45 44 44
22 20 19 19 19 17 16 14 13 11 9 8 7 5 4 2 2 4 5 7 9 10 12 13 13 14 14 15 17 18 20 21 23 24 25 26 27 27 28 28 29 29 30 30 30 31 31 31 31 31 31 31 32 32 32 32 32 34 35 36 38 38 39 40 41 41 40 39 39 39 40 40 41 42 43 44 45 46 47 47 48 48 48 48 48 47 48 48
23 22 21 20 20 19 17 15 14 12 10 9 7 6 5 3 1 1 3 4 6 8 10 11 12 13 14 15 16 18 19 21 22 23 25 26 27 27 28 28 29 29 30 30 29 30 30 31 31 31 31 31 32 33 33 32 32 32 33 35 36 37 38 39 40 40 41 40 40 40 40 40 41 41 42 43 44 45 46 47 47 48 48 49 50 50 50 51
25 23 22 22 21 20 18 17 15 14 12 10 8 7 6 4 2 1 2 3 5 6 7 9 10 12 13 14 16 17 19 20 22 23 24 25 27 28 28 29 29 30 30 29 29 29 30 31 31 31 31 31 32 32 33 33 32 32 32 32 33 35 37 37 38 39 40 40 40 39 39 39 40 40 41 42 43 44 45 46 47 48 49 50 51 52 51 52
27 25 24 22 21 20 19 18 17 16 14 12 10 9 7 5 4 3 2 3 5 6 7 8 9 10 12 13 15 16 18 20 22 23 24 25 26 28 29 29 29 30 30 30 30 30 30 30 31 31 31 32 31 31 32 33 33 32 32 31 31 33 35 36 37 38 38 39 39 39 38 38 39 39 40 41 42 43 45 46 48 49 50 50 51 52 52 52
28 26 25 23 22 21 21 20 19 18 16 14 12 10 9 7 5 4 4 4 5 6 7 8 9 10 11 12 14 15 17 19 21 22 24 25 27 28 29 29 30 30 30 31 31 31 31 31 31 30 31 32 32 31 31 31 32 32 32 32 32 32 33 35 36 37 37 38 38 39 38 38 38 38 39 40 42 43 45 47 48 50 51 52 52 52 53 53
29 28 26 25 24 23 22 22 21 19 17 16 14 12 11 9 7 6 6 6 6 7 7 8 9 10 11 12 13 15 16 18 19 21 23 25 27 28 29 29 30 30 31 31 31 31 31 31 31 31 31 31 31 32 31 31 31 31 31 32 32 32 33 34 36 37 37 38 38 39 39 38 38 38 39 40 41 43 45 46 48 50 51 52 52 52 53 54
30 29 28 27 25 24 24 23 22 20 19 18 16 15 13 11 9 8 8 8 8 8 9 9 10 11 11 12 13 15 16 17 19 21 23 24 26 27 28 30 30 31 31 32 32 32 31 31 32 32 31 31 31 32 32 32 31 31 31 31 31 32 32 33 34 36 37 38 39 39 39 39 39 38 39 40 41 42 44 45 46 48 50 51 52 53 54 54
32 31 30 29 27 27 26 25 23 22 21 20 19 17 15 13 12 11 11 11 11 11 11 10 11 12 13 14 15 16 17 18 20 22 24 25 26 27 28 29 31 31 32 32 32 32 32 33 33 33 32 32 32 32 33 32 32 32 31 31 31 32 32 32 33 34 36 37 38 39 40 40 40 39 39 40 41 41 43 44 45 47 49 51 52 53 54 55
34 33 32 31 30 29 28 26 25 24 23 22 21 19 17 16 15 14 14 14 13 13 13 13 12 13 14 15 16 18 19 20 21 23 25 27 28 29 29 30 31 32 33 33 34 34 34 33 33 33 33 33 33 33 33 33 32 32 32 31 32 32 32 33 33 33 34 35 36 38 39 40 40 40 39 39 40 41 42 43 45 46 49 51 53 54 54 55
36 35 33 32 31 30 29 28 27 27 26 25 24 22 20 19 18 17 17 17 16 16 16 16 15 15 16 17 18 19 20 21 22 23 25 28 29 31 32 32 32 33 34 34 34 35 35 35 34 33 33 33 33 33 33 33 33 32 32 32 32 32 32 32 33 34 34 35 36 38 40 41 41 41 40 39 39 41 42 43 44 46 48 50 52 54 55 55
37 36 35 33 33 32 31 30 30 29 28 27 26 25 23 23 21 20 20 20 19 18 18 19 19 18 18 18 19 20 22 23 24 25 26 28 29 31 33 34 34 35 35 36 36 35 35 35 35 34 34 34 34 33 33 33 33 33 33 33 33 33 33 33 34 35 35 36 37 38 39 40 41 41 40 39 39 41 42 44 45 46 48 50 52 54 55 56
Wind_Direction
296 297 300 304 304 304 305 307 309 310 311 313 314 315 316 317 317 316 315 314 314 316 318 318 315 313 310 308 305 302 298 291 284 278 270 263 255 250 245 241 238 236 234 232 231 230 230 229 228 228 228 229 229 230 232 235 239 242 245 245 246 246 245 244 243 245 246 248 249 248 246 244 242 242 242 242 242 243 244 246 248 250 251 251 252 252 251 250
297 300 303 303 303 305 307 310 311 311 313 315 316 317 318 319 318 317 316 317 320 323 324 323 322 323 324 325 325 323 319 312 304 292 276 260 247 238 232 229 227 226 226 225 225 225 224 224 224 224 224 225 226 228 230 233 236 238 238 238 238 239 239 240 241 243 246 247 247 247 246 246 245 244 242 242 242 243 244 245 247 249 250 250 251 253 253 253
301 303 303 302 304 306 309 311 312 313 315 316 318 319 319 319 319 319 320 323 328 329 328 331 339 347 352 356 358 359 357 359 5 5 351 232 210 206 205 205 208 210 212 213 215 216 217 218 218 220 221 222 223 225 227 229 229 230 231 232 233 235 235 236 237 239 241 242 242 243 245 246 246 246 244 244 244 245 246 246 248 249 251 252 252 253 254 254
302 302 301 303 305 307 310 313 314 315 316 318 320 320 320 321 322 323 327 333 335 337 341 351 5 12 19 25 29 32 35 41 47 55 71 92 121 145 159 168 175 182 189 194 199 205 209 212 214 216 218 219 220 222 223 224 224 225 228 230 232 234 234 234 234 235 237 238 240 243 245 247 248 247 246 246 246 248 248 248 249 250 251 252 253 254 254 255
299 299 302 304 305 309 313 316 316 317 318 320 321 321 322 325 327 332 339 344 346 352 1 12 24 28 33 39 46 51 53 55 57 61 68 81 98 117 131 140 146 152 159 167 176 185 194 201 206 210 213 215 216 218 219 221 223 225 228 230 232 233 234 235 235 236 238 240 242 244 246 247 247 246 246 247 248 249 249 249 250 251 252 252 252 253 254 255
297 299 302 304 308 313 316 317 317 318 319 321 322 323 327 331 337 344 352 358 1 8 15 27 37 39 40 45 51 59 63 63 63 62 63 68 79 93 109 122 133 140 146 151 156 159 165 172 180 188 196 202 205 208 213 218 222 226 229 231 231 232 233 235 236 238 241 243 244 245 246 247 247 246 247 248 249 250 250 250 251 252 253 253 252 253 254 256
298 301 303 307 312 317 318 318 318 319 321 322 325 329 334 341 350 358 6 12 16 20 27 40 49 49 48 49 52 58 65 70 72 73 71 69 69 72 79 90 106 121 134 145 152 156 159 161 168 178 187 195 199 203 209 216 220 224 226 228 229 230 233 236 238 240 243 246 247 249 250 252 252 250 250 250 251 252 252 251 252 254 255 256 256 257 257 258
301 303 306 311 316 319 318 319 320 320 323 326 330 336 343 353 3 11 19 25 29 33 36 46 57 61 59 56 57 59 62 67 72 76 79 78 76 75 74 74 77 82 89 101 120 139 152 161 170 179 189 197 202 206 211 217 222 225 228 230 233 236 240 245 247 246 247 249 252 255 257 260 259 255 254 254 253 253 255 255 256 258 260 262 263 262 261 260
304 306 310 316 319 319 319 320 321 323 327 332 337 345 355 4 13 21 30 35 40 44 46 49 56 65 68 66 65 65 64 64 64 67 73 78 82 84 84 83 82 81 81 84 90 102 118 139 157 172 186 196 204 211 216 222 228 232 237 241 245 249 254 257 255 252 252 252 254 257 258 260 260 259 259 259 258 259 261 262 262 263 266 268 268 267 264 261
307 310 315 319 319 319 321 323 324 329 334 338 346 357 6 15 22 29 37 43 47 52 54 56 57 62 67 70 71 71 69 68 66 64 65 68 73 77 81 84 85 86 85 85 88 94 103 117 136 156 175 189 200 211 221 229 235 241 247 250 251 254 258 255 247 243 243 244 248 253 256 258 259 259 261 262 263 266 267 267 268 269 270 270 270 268 266 262
309 314 319 319 319 321 323 325 330 337 342 347 359 11 18 25 30 34 41 47 51 56 60 61 61 62 64 66 69 72 72 72 71 69 67 66 66 67 69 72 74 77 81 85 87 90 94 103 118 138 163 185 200 210 221 230 234 237 242 247 250 250 247 242 238 235 233 232 235 241 248 253 257 258 260 263 264 267 269 270 271 271 270 269 267 266 264 261
314 319 320 319 320 323 326 331 340 346 352 3 16 25 30 33 36 39 44 50 53 57 61 64 65 64 64 65 66 69 71 73 74 73 72 71 69 68 67 66 66 66 68 71 75 79 83 88 92 104 133 197 221 226 230 235 237 238 239 244 248 245 240 238 237 238 236 233 233 235 239 243 250 254 257 261 261 262 265 267 269 269 267 265 263 263 263 260
319 321 319 320 323 326 332 342 350 356 7 22 33 39 42 43 44 45 48 52 56 58 61 65 67 67 66 65 65 66 68 70 72 73 73 73 72 71 69 67 65 62 60 59 59 61 67 74 79 85 91 258 261 257 255 256 259 258 256 255 253 248 248 247 245 245 242 238 238 238 239 240 244 249 252 257 257 256 260 264 264 262 261 261 261 262 263 262
321 320 319 323 327 331 343 353 2 10 24 37 44 48 51 52 53 53 53 56 60 62 63 64 67 69 69 68 67 66 67 68 69 71 72 72 72 72 71 71 70 68 65 61 57 54 55 59 60 57 39 338 298 283 279 277 275 272 269 267 262 257 258 260 258 254 248 241 239 240 240 240 241 244 247 251 252 251 255 257 256 256 255 257 260 262 264 265
321 320 321 327 330 340 356 6 15 26 39 48 51 54 56 57 58 59 59 59 62 65 67 67 67 68 70 70 70 68 67 67 67 68 69 70 71 72 72 72 72 70 68 64 60 56 54 53 53 50 43 17 326 297 290 286 282 278 276 273 268 263 262 264 264 262 256 246 240 239 239 239 238 239 241 244 246 247 249 250 250 253 256 260 266 271 273 272
319 320 325 330 336 354 10 19 29 39 49 54 56 58 60 60 60 61 61 61 62 64 66 67 68 68 68 69 70 69 68 67 66 65 65 66 66 67 68 68 67 66 64 62 59 56 52 50 47 42 36 25 5 335 315 302 290 281 277 273 268 264 262 262 262 261 258 252 245 241 239 238 238 237 236 239 241 241 245 249 253 260 269 280 286 288 285 280
319 322 329 333 346 11 23 32 41 48 54 59 60 61 62 63 62 62 62 62 63 63 64 66 67 67 67 67 68 68 67 67 66 65 64 64 64 63 63 63 63 63 62 60 57 53 47 42 37 30 24 17 9 359 350 341 327 308 292 280 271 265 261 259 256 250 249 250 247 242 238 236 237 238 236 236 237 238 244 254 264 272 282 297 299 292 283 275
319 326 332 340 4 27 36 43 51 55 58 62 63 63 64 65 64 63 63 63 64 64 64 65 66 67 67 67 67 67 67 67 67 67 66 66 65 63 61 60 60 60 59 57 55 51 47 42 37 32 26 19 12 5 358 352 342 328 314 299 282 269 264 261 256 245 237 239 242 241 236 232 232 234 235 235 233 232 233 241 252 257 260 263 266 268 266 263
321 331 337 353 27 41 47 52 57 60 62 64 65 66 66 67 66 65 64 64 64 64 64 65 66 67 67 67 67 67 68 68 67 67 67 66 65 64 62 60 58 58 57 56 54 51 48 44 40 36 31 26 19 13 5 356 346 336 326 313 297 275 261 258 257 249 236 231 231 233 231 227 225 226 229 231 230 225 216 216 226 236 246 255 257 256 256 259
326 336 346 17 47 54 56 59 62 65 65 65 66 67 68 68 67 66 65 65 65 65 65 65 66 66 67 68 68 68 68 68 67 67 66 65 65 64 63 61 59 58 57 56 54 52 50 47 43 39 35 30 25 20 13 3 351 342 332 318 307 289 263 251 250 249 241 232 227 224 222 219 218 217 217 220 220 214 206 202 206 228 250 263 270 269 269 270
331 343 2 43 61 63 64 63 65 67 67 66 67 68 68 69 68 67 66 65 64 65 65 65 67 67 68 68 68 68 67 67 67 66 65 64 64 63 63 62 61 60 58 57 56 54 53 51 48 45 41 36 31 27 21 12 360 349 338 324 312 298 274 251 242 241 237 232 227 221 212 207 208 208 204 200 196 193 195 197 198 223 253 273 287 282 275 272
337 355 27 63 70 70 69 67 66 67 68 68 68 69 69 70 69 68 67 65 64 64 64 64 65 65 66 66 67 67 66 66 66 65 65 64 63 63 62 61 60 59 58 56 55 54 52 51 49 47 45 42 39 35 30 23 11 357 347 335 322 308 286 260 240 232 229 226 223 216 204 197 198 198 193 185 182 182 182 180 180 215 250 260 263 257 257 258
348 18 52 75 77 76 73 70 69 68 69 69 68 69 70 70 70 69 68 66 65 64 64 64 64 64 64 65 65 66 65 65 65 65 64 64 63 63 62 61 60 58 56 54 53 52 51 50 50 49 48 46 45 42 39 34 26 12 1 350 337 322 298 271 244 228 223 221 219 210 196 191 191 189 186 181 180 180 174 165 185 227 241 241 240 242 249 249
11 46 69 80 83 81 76 73 72 70 69 68 67 68 68 67 67 67 66 66 64 63 63 63 63 64 64 64 63 63 63 63 63 62 62 62 61 60 60 59 59 58 56 55 54 53 52 51 50 50 49 48 47 45 43 40 36 30 22 14 4 349 323 285 253 230 222 218 215 205 193 190 190 185 182 179 177 174 166 167 203 223 230 230 227 228 238 239
53 69 79 84 85 83 78 75 73 71 70 68 67 66 65 64 64 64 64 63 62 61 61 60 60 61 61 61 61 61 61 61 61 60 59 59 58 58 57 57 57 58 57 57 55 54 53 52 51 50 49 48 48 47 45 43 40 37 34 30 26 18 8 342 260 231 221 215 210 201 192 190 190 185 180 177 175 173 170 180 205 216 222 226 227 228 235 238
97 87 89 88 87 85 80 76 73 72 71 70 69 66 65 64 63 63 62 62 61 60 60 59 58 58 58 59 60 60 60 60 60 59 58 57 56 56 56 56 56 56 56 55 54 53 52 51 51 50 50 49 48 48 47 45 43 42 40 38 36 33 32 40 74 134 198 206 203 198 192 189 188 185 182 179 179 181 183 193 205 211 216 221 225 228 233 240
120 102 98 93 92 89 84 80 77 74 71 70 69 66 65 64 63 63 62 62 62 61 60 60 59 58 59 59 59 59 59 60 60 60 58 57 56 55 54 54 54 54 54 53 52 51 50 50 49 48 49 49 49 48 48 47 45 44 44 43 42 42 43 48 65 92 117 158 182 191 188 180 179 183 185 184 185 189 192 198 206 212 216 218 221 226 230 237
135 118 109 102 97 92 88 83 78 75 71 69 68 67 66 65 64 64 63 63 62 62 62 61 61 60 61 61 61 60 60 60 61 61 60 59 57 56 54 53 53 53 53 52 51 50 49 48 47 46 46 46 47 47 48 48 46 46 46 46 46 47 50 53 60 74 91 119 156 179 181 173 171 178 186 190 193 197 199 202 207 213 218 219 221 226 231 237
149 135 123 112 103 96 90 85 80 76 72 70 69 69 68 67 66 66 66 65 64 63 63 62 61 61 61 61 61 62 62 61 61 60 60 59 59 58 56 54 53 52 52 51 49 48 48 47 46 45 44 43 44 45 47 49 49 48 47 48 48 49 52 56 62 69 76 86 109 145 169 176 176 178 185 193 200 205 206 207 208 213 219 222 224 227 232 238
159 151 137 123 110 100 94 87 82 78 75 74 73 72 71 70 68 68 67 66 66 65 64 63 62 61 61 60 60 60 60 60 60 60 59 59 58 58 57 56 54 52 51 50 48 47 46 45 45 44 43 42 42 43 45 47 48 48 48 48 49 49 51 54 59 65 71 75 82 93 112 142 168 180 187 195 203 209 211 210 210 213 219 224 227 229 232 238
167 162 149 133 119 107 98 90 84 80 78 78 76 75 74 72 71 69 68 67 67 66 65 64 63 62 61 59 58 58 59 59 59 59 59 58 58 57 56 55 54 52 51 50 49 48 46 45 44 44 43 43 42 42 43 45 47 48 48 48 48 49 50 52 55 59 64 69 74 80 86 94 112 144 173 190 202 210 215 216 216 220 225 229 231 233 236 240
171 168 156 142 128 115 105 95 88 83 82 82 81 79 77 75 73 71 69 67 67 66 65 64 62 61 60 59 57 57 56 56 56 55 55 55 54 54 54 53 53 52 51 49 49 48 47 46 45 44 43 43 43 43 43 45 46 47 47 48 48 48 49 50 52 54 57 59 63 67 72 77 83 93 110 140 175 199 213 220 225 230 235 238 238 239 242 245
173 169 161 149 137 126 112 100 92 88 86 85 84 82 80 77 75 72 69 67 66 65 64 62 61 61 60 58 56 56 55 54 54 53 53 53 52 52 51 51 51 51 50 48 47 46 45 45 44 43 43 43 43 42 42 43 45 46 46 47 47 47 48 49 50 51 53 54 55 57 59 62 66 70 77 84 98 130 178 207 222 231 237 241 244 245 247 250
175 172 165 156 147 135 120 107 100 95 91 90 88 85 81 78 74 71 68 66 66 65 62 60 59 58 58 57 56 55 55 54 54 53 53 52 51 50 50 49 48 48 47 47 45 44 43 42 42 41 41 41 41 40 40 40 41 42 43 45 45 45 46 47 48 49 50 51 52 53 54 55 56 58 61 64 68 74 84 105 168 216 231 239 244 247 250 253
178 176 170 164 157 145 131 117 108 102 98 94 91 86 81 78 74 71 66 64 64 64 62 59 57 56 55 54 53 53 53 53 52 52 51 49 48 47 47 46 46 45 44 43 43 42 41 39 38 38 38 38 38 38 38 38 38 39 40 42 42 43 43 44 44 45 46 47 48 49 50 50 50 51 52 53 54 56 58 59 59 58 11 253 251 252 253 255
180 179 174 171 165 155 143 128 117 110 103 97 93 87 82 78 74 70 64 62 62 62 61 59 56 55 53 50 49 48 49 50 49 49 49 48 47 46 45 44 43 42 41 39 39 38 37 36 35 35 35 35 35 36 36 36 36 36 37 38 39 40 41 42 41 41 41 42 43 44 45 45 45 45 46 46 46 45 45 45 44 41 35 23 358 320 291 277
182 182 179 176 173 166 155 141 129 119 109 100 94 88 83 78 74 69 63 59 58 58 58 57 54 52 50 47 45 44 45 46 47 47 47 46 45 44 43 43 42 40 39 37 35 34 33 32 31 32 32 32 32 33 34 34 33 32 34 35 35 36 38 39 40 39 38 38 38 39 40 40 40 40 40 40 40 39 39 37 36 35 32 27 20 12 359 343
184 185 183 182 179 175 166 154 143 132 119 106 94 89 85 78 73 68 62 58 56 54 54 52 48 46 45 42 40 40 40 41 42 43 44 43 43 42 41 41 40 39 38 36 34 32 30 29 28 27 28 29 30 31 31 32 30 30 31 31 32 33 34 36 37 37 36 34 34 34 35 35 35 35 35 35 34 34 33 32 31 29 27 25 22 18 13 6
188 188 188 187 185 182 177 169 159 148 133 118 102 87 80 76 70 65 60 55 53 51 50 48 44 40 39 36 34 34 35 36 37 38 38 39 38 38 38 38 37 37 35 34 33 32 30 28 26 25 24 24 26 27 28 29 28 28 28 28 28 29 30 31 33 34 34 32 31 30 30 30 30 30 30 30 30 29 29 28 26 25 24 22 20 17 15 11
192 191 192 192 191 189 186 182 174 164 152 137 121 98 78 71 67 63 55 48 46 45 44 43 40 36 33 30 28 27 29 31 31 32 33 33 33 33 33 33 33 33 32 31 30 29 29 28 26 24 23 22 22 23 24 24 25 25 25 25 25 25 26 27 28 29 29 29 28 27 26 26 26 26 26 26 26 25 25 24 23 22 21 20 18 16 14 11
197 196 196 196 196 197 194 192 189 184 175 159 144 128 103 76 63 57 46 34 31 32 31 32 33 30 26 23 21 21 23 25 25 25 26 28 28 28 28 28 28 28 28 28 27 26 25 25 25 24 23 22 21 20 21 21 22 23 23 22 21 21 22 22 23 23 24 25 25 24 23 22 22 22 22 23 23 23 22 21 21 20 19 18 16 14 12 10
201 200 200 200 201 203 202 201 201 200 195 181 167 157 146 124 71 51 36 20 16 16 15 18 21 21 20 17 15 15 18 19 19 19 20 22 22 22 22 23 23 22 23 23 23 22 21 21 21 21 20 20 20 19 18 18 18 20 21 20 19 19 19 19 19 19 19 20 20 19 19 18 18 18 18 19 19 19 19 19 18 18 17 16 14 12 11 9
204 204 205 205 205 206 208 208 210 211 210 203 192 185 179 179 181 48 23 5 2 5 6 9 12 12 13 12 11 11 14 15 14 14 15 16 16 17 17 17 17 17 18 18 18 18 18 17 17 16 17 17 17 17 16 15 16 17 17 18 17 16 16 16 16 16 16 16 16 16 15 14 14 14 14 15 15 16 16 16 16 15 15 14 13 12 10 8
206 208 208 209 209 211 213 214 215 218 219 218 215 212 208 207 218 254 339 344 349 360 6 10 11 9 8 8 7 7 9 10 10 10 11 12 12 12 12 12 11 11 12 12 13 13 13 14 14 13 13 13 13 13 12 13 13 14 14 14 15 15 14 14 13 13 13 13 13 13 12 11 11 11 11 11 12 12 13 13 13 13 13 13 12 11 10 8
208 210 212 213 214 216 218 219 221 223 225 227 228 228 226 229 238 261 303 325 337 353 3 6 9 8 7 5 4 3 3 4 4 4 6 7 8 8 7 7 6 6 6 6 7 8 8 9 10 10 10 9 9 9 9 9 10 10 11 11 12 13 12 12 11 11 10 9 10 10 10 9 8 8 8 8 9 9 10 10 11 11 11 11 11 10 9 7
209 211 214 216 217 219 222 223 225 227 230 232 233 234 235 238 246 264 291 309 323 337 347 353 357 0 1 1 1 359 359 359 358 358 359 1 3 4 4 3 2 1 1 1 2 3 3 3 4 6 7 6 5 5 5 5 6 7 7 8 9 10 10 9 9 8 7 6 6 7 7 7 7 6 6 6 6 7 7 8 8 9 9 9 9 8 8 7
211 212 214 217 220 221 224 226 228 230 233 235 236 236 238 241 249 263 281 294 305 317 328 336 341 346 350 352 353 353 353 353 354 354 355 357 358 359 359 359 359 358 357 357 358 358 358 358 359 1 2 2 1 1 1 1 2 3 4 5 6 7 7 6 6 5 4 3 3 3 4 4 4 4 4 4 4 5 5 6 6 6 7 7 7 7 7 7
212 213 215 218 220 223 225 228 230 233 235 236 237 238 241 245 252 261 273 282 293 302 312 321 327 332 337 340 342 344 345 348 349 350 350 352 354 354 354 354 354 354 354 353 354 354 354 354 354 355 357 358 358 357 357 357 358 359 0 1 3 4 5 4 3 2 2 0 360 360 1 1 1 1 2 2 3 3 3 3 4 4 4 5 5 5 6 6
214 215 216 218 220 223 226 228 231 233 235 237 238 240 244 249 255 263 269 276 285 293 301 309 316 321 326 331 334 336 338 341 344 344 344 346 348 349 350 349 349 350 350 350 350 350 350 351 351 351 352 353 354 353 353 354 354 354 355 357 358 360 1 1 1 0 360 358 357 357 358 359 359 359 359 360 0 0 0 1 1 1 2 3 4 4 4 4
216 217 218 219 221 223 226 229 232 234 236 238 240 242 245 250 257 264 269 275 281 288 294 300 306 312 318 322 326 328 330 333 336 338 338 339 341 343 344 345 345 345 346 346 347 347 347 348 349 348 348 348 349 350 350 350 350 350 351 353 354 355 356 357 358 357 357 357 355 355 355 356 356 356 356 357 358 358 358 358 359 359 360 1 2 2 2 3
218 218 219 220 222 224 227 229 232 235 237 239 241 244 247 251 257 263 269 275 280 284 288 293 298 304 309 314 318 320 323 325 328 331 333 334 335 337 338 340 341 341 342 343 344 344 344 345 346 347 345 345 345 346 346 347 347 347 348 349 350 350 351 353 353 354 354 355 354 353 354 354 354 353 353 354 355 355 356 356 357 358 358 359 360 0 0 0
219 220 221 222 224 226 227 229 232 235 237 239 241 244 247 251 256 262 269 275 280 282 284 287 292 297 302 307 310 314 316 319 321 324 326 328 330 332 333 335 337 338 338 339 340 341 341 341 343 344 344 342 342 343 344 345 345 344 345 345 346 346 347 349 350 351 352 352 352 353 352 351 351 350 350 350 352 353 354 355 355 356 357 357 357 358 359 359
Height
10741 10740 10738 10734 10729 10724 10719 10713 10707 10700 10694 10687 10679 10671 10663 10654 10645 10637 10629 10622 10614 10608 10601 10595 10590 10585 10581 10578 10575 10573 10571 10570 10569 10569 10569 10569 10570 10571 10573 10575 10577 10579 10581 10584 10587 10590 10594 10598 10602 10607 10610 10614 10618 10621 10623 10626 10630 10635 10641 10645 10648 10652 10654 10657 10658 10658 10658 10658 10659 10660 10661 10663 10665 10667 10670 10672 10672 10671 10671 10671 10673 10674 10675 10677 10678 10679 10681 10683
10739 10738 10735 10730 10726 10721 10716 10709 10702 10696 10689 10682 10674 10666 10658 10650 10642 10634 10626 10619 10612 10605 10599 10594 10589 10584 10580 10577 10574 10572 10570 10569 10568 10568 10568 10568 10569 10570 10572 10573 10575 10577 10580 10583 10586 10589 10592 10596 10600 10604 10607 10611 10615 10618 10621 10625 10630 10634 10638 10641 10645 10648 10651 10653 10654 10655 10655 10656 10656 10656 10657 10659 10662 10665 10667 10668 10668 10667 10667 10669 10670 10671 10672 10673 10675 10677 10679 10682
10738 10736 10732 10727 10723 10718 10712 10706 10699 10692 10685 10678 10670 10663 10655 10648 10640 10632 10624 10617 10611 10605 10599 10594 10589 10584 10580 10577 10574 10572 10570 10569 10568 10568 10568 10568 10569 10570 10571 10573 10575 10577 10580 10582 10585 10588 10591 10595 10598 10602 10605 10609 10612 10616 10620 10624 10628 10630 10633 10637 10641 10644 10647 10649 10651 10652 10652 10653 10652 10652 10654 10656 10660 10663 10664 10665 10664 10664 10665 10667 10668 10668 10669 10671 10673 10675 10677 10680
10736 10734 10729 10725 10720 10715 10709 10703 10696 10689 10682 10675 10668 10660 10653 10646 10639 10631 10623 10617 10611 10605 10600 10594 10589 10585 10581 10578 10575 10573 10571 10570 10569 10569 10568 10569 10569 10570 10572 10573 10575 10577 10580 10583 10585 10588 10591 10594 10598 10601 10605 10608 10612 10616 10620 10622 10625 10627 10630 10634 10638 10641 10643 10646 10648 10649 10648 10649 10649 10650 10652 10655 10658 10661 10662 10661 10661 10661 10664 10665 10666 10666 10667 10669 10672 10674 10676 10679
10735 10732 10727 10722 10718 10713 10707 10700 10693 10686 10679 10673 10666 10659 10652 10645 10637 10630 10623 10617 10611 10606 10600 10595 10591 10587 10584 10580 10578 10575 10574 10572 10571 10571 10571 10571 10571 10572 10573 10575 10576 10579 10581 10584 10587 10589 10593 10596 10599 10603 10606 10609 10613 10616 10619 10620 10622 10625 10628 10632 10636 10638 10641 10642 10644 10645 10645 10646 10648 10649 10651 10653 10656 10659 10659 10659 10659 10660 10662 10664 10664 10665 10666 10668 10671 10673 10676 10678
10733 10730 10725 10720 10716 10711 10705 10699 10691 10684 10678 10671 10664 10657 10651 10644 10637 10629 10623 10617 10612 10607 10602 10598 10593 10590 10587 10584 10581 10579 10577 10575 10575 10574 10574 10574 10574 10575 10576 10577 10578 10580 10583 10585 10587 10590 10593 10597 10600 10603 10606 10608 10612 10615 10617 10618 10621 10624 10627 10631 10634 10636 10638 10639 10642 10643 10643 10645 10647 10648 10649 10651 10654 10657 10657 10657 10658 10658 10660 10662 10663 10664 10665 10667 10670 10673 10675 10677
10732 10727 10723 10719 10715 10709 10704 10697 10690 10683 10676 10670 10663 10656 10650 10643 10636 10630 10624 10619 10614 10609 10605 10600 10596 10593 10590 10588 10585 10583 10580 10579 10579 10578 10578 10578 10579 10579 10580 10581 10582 10584 10585 10587 10589 10591 10594 10597 10599 10601 10604 10606 10610 10613 10615 10617 10620 10623 10625 10628 10630 10632 10635 10637 10640 10642 10643 10644 10645 10647 10648 10650 10654 10655 10655 10656 10656 10656 10657 10660 10662 10663 10663 10666 10669 10673 10675 10677
10730 10725 10721 10717 10713 10708 10702 10696 10689 10682 10675 10669 10662 10656 10650 10643 10637 10631 10625 10620 10616 10611 10607 10603 10599 10595 10593 10591 10590 10587 10585 10584 10584 10582 10581 10582 10582 10583 10585 10586 10587 10589 10590 10592 10593 10595 10597 10599 10601 10603 10605 10607 10611 10613 10615 10617 10619 10622 10624 10625 10627 10630 10634 10638 10641 10642 10643 10643 10644 10646 10648 10650 10653 10654 10654 10654 10655 10654 10656 10659 10661 10662 10663 10666 10669 10672 10674 10676
10728 10723 10720 10716 10711 10706 10701 10695 10688 10681 10674 10668 10662 10656 10650 10644 10638 10632 10627 10622 10618 10614 10610 10606 10602 10599 10595 10595 10593 10591 10590 10590 10588 10587 10586 10586 10587 10587 10588 10590 10591 10592 10594 10596 10598 10599 10601 10603 10605 10607 10608 10610 10613 10615 10617 10618 10620 10622 10624 10625 10628 10631 10635 10639 10642 10642 10643 10643 10643 10645 10647 10649 10650 10651 10653 10653 10653 10653 10655 10658 10660 10661 10663 10665 10667 10669 10671 10672
10726 10722 10718 10714 10710 10705 10700 10694 10688 10681 10674 10668 10662 10656 10650 10645 10639 10634 10629 10625 10620 10616 10613 10609 10606 10603 10599 10598 10596 10594 10594 10593 10592 10592 10592 10592 10592 10592 10592 10593 10594 10595 10596 10598 10600 10602 10605 10606 10608 10609 10611 10612 10614 10616 10617 10619 10621 10623 10625 10626 10628 10632 10636 10638 10639 10639 10640 10641 10642 10643 10644 10646 10647 10648 10650 10650 10652 10653 10655 10657 10659 10661 10662 10663 10664 10665 10666 10668
10725 10721 10717 10713 10709 10705 10700 10694 10687 10681 10674 10668 10662 10656 10651 10646 10641 10636 10632 10628 10624 10620 10616 10612 10609 10606 10604 10602 10600 10598 10597 10596 10595 10595 10596 10596 10596 10597 10597 10597 10597 10598 10599 10601 10603 10605 10606 10608 10610 10611 10612 10613 10615 10616 10617 10619 10620 10622 10623 10624 10627 10632 10634 10634 10633 10634 10635 10638 10640 10641 10642 10642 10643 10645 10647 10648 10650 10653 10654 10656 10658 10659 10660 10660 10660 10660 10661 10663
10723 10720 10716 10712 10708 10704 10700 10694 10687 10681 10675 10669 10663 10657 10652 10647 10643 10639 10635 10631 10627 10623 10620 10616 10613 10610 10608 10606 10604 10602 10601 10600 10599 10599 10599 10599 10599 10600 10600 10600 10601 10602 10603 10604 10605 10607 10608 10609 10611 10612 10614 10615 10616 10616 10617 10618 10619 10620 10622 10623 10626 10629 10629 10628 10629 10630 10633 10637 10638 10638 10638 10638 10640 10642 10644 10645 10647 10651 10652 10654 10656 10657 10656 10655 10655 10655 10657 10659
10722 10719 10715 10712 10708 10704 10700 10694 10688 10681 10676 10670 10664 10659 10654 10649 10645 10642 10638 10634 10631 10627 10624 10620 10616 10614 10612 10610 10609 10607 10605 10604 10603 10602 10602 10602 10602 10602 10602 10603 10604 10605 10606 10607 10608 10609 10610 10611 10612 10613 10614 10615 10616 10617 10617 10618 10619 10620 10621 10622 10625 10626 10625 10626 10628 10630 10633 10635 10636 10635 10635 10636 10637 10639 10641 10642 10644 10648 10649 10651 10652 10652 10651 10650 10651 10652 10653 10655
10720 10718 10715 10711 10708 10704 10700 10694 10688 10683 10677 10671 10666 10661 10656 10652 10648 10645 10641 10638 10634 10630 10627 10624 10621 10617 10615 10614 10613 10611 10610 10609 10608 10607 10606 10606 10606 10606 10606 10606 10607 10608 10609 10610 10611 10612 10612 10613 10613 10614 10615 10616 10617 10618 10618 10619 10620 10620 10620 10622 10623 10624 10624 10624 10626 10628 10630 10632 10633 10633 10632 10634 10635 10636 10637 10638 10640 10644 10645 10645 10646 10646 10646 10646 10647 10649 10651 10653
10719 10717 10714 10711 10708 10704 10700 10695 10689 10684 10679 10673 10668 10663 10659 10655 10651 10648 10645 10642 10638 10634 10631 10628 10625 10622 10619 10617 10616 10615 10614 10613 10612 10611 10611 10610 10610 10610 10610 10610 10610 10611 10611 10612 10613 10614 10614 10614 10614 10615 10616 10617 10617 10618 10618 10619 10620 10619 10619 10620 10621 10622 10622 10622 10623 10625 10627 10629 10630 10629 10630 10631 10632 10633 10634 10635 10637 10639 10640 10640 10641 10642 10644 10645 10647 10649 10650 10651
10718 10716 10714 10711 10708 10705 10701 10695 10690 10686 10681 10675 10671 10666 10661 10658 10654 10651 10648 10645 10642 10639 10635 10632 10629 10626 10624 10622 10620 10618 10617 10617 10616 10615 10615 10615 10614 10614 10614 10613 10613 10613 10613 10614 10615 10615 10616 10615 10615 10616 10616 10616 10617 10617 10618 10619 10619 10618 10618 10618 10619 10619 10620 10619 10620 10622 10623 10625 10626 10626 10628 10629 10630 10630 10631 10632 10634 10636 10637 10639 10641 10642 10644 10646 10648 10649 10649 10650
10718 10716 10714 10712 10709 10705 10701 10697 10692 10688 10683 10678 10673 10669 10664 10661 10658 10655 10652 10649 10646 10643 10640 10637 10633 10630 10628 10627 10624 10622 10621 10620 10620 10619 10619 10619 10619 10618 10618 10617 10617 10616 10616 10617 10617 10617 10617 10616 10616 10615 10615 10615 10615 10616 10616 10616 10617 10616 10616 10616 10616 10616 10616 10616 10616 10618 10620 10621 10621 10622 10625 10627 10627 10628 10629 10631 10632 10635 10637 10639 10641 10642 10643 10645 10647 10647 10647 10647
10717 10716 10714 10712 10709 10706 10702 10698 10694 10690 10686 10681 10676 10672 10668 10664 10661 10658 10656 10653 10650 10647 10644 10641 10637 10634 10633 10631 10628 10627 10626 10625 10625 10625 10624 10624 10623 10622 10621 10621 10620 10620 10619 10619 10619 10618 10618 10617 10617 10616 10616 10615 10615 10614 10614 10614 10614 10613 10612 10612 10612 10613 10612 10612 10612 10614 10615 10616 10617 10618 10621 10623 10625 10626 10628 10629 10632 10634 10636 10638 10638 10639 10639 10640 10641 10642 10643 10644
10717 10716 10714 10712 10709 10706 10703 10700 10697 10693 10689 10684 10680 10676 10672 10668 10664 10662 10659 10657 10654 10651 10648 10646 10642 10640 10638 10635 10634 10633 10631 10631 10630 10629 10629 10628 10626 10625 10624 10624 10624 10623 10622 10622 10621 10620 10619 10619 10618 10617 10617 10616 10615 10614 10613 10612 10611 10610 10609 10608 10608 10609 10609 10608 10608 10609 10611 10612 10613 10615 10617 10620 10622 10624 10626 10628 10631 10633 10634 10634 10635 10635 10635 10634 10634 10635 10637 10641
10717 10716 10714 10712 10710 10707 10705 10702 10699 10695 10691 10687 10684 10680 10676 10672 10668 10665 10663 10661 10658 10656 10654 10651 10647 10645 10643 10641 10640 10638 10637 10636 10634 10634 10633 10631 10630 10628 10628 10628 10627 10627 10626 10625 10624 10623 10622 10621 10620 10619 10618 10617 10616 10615 10613 10612 10610 10608 10607 10605 10604 10604 10605 10605 10604 10605 10606 10608 10610 10611 10614 10617 10620 10622 10624 10627 10630 10632 10632 10632 10633 10633 10632 10633 10634 10634 10636 10639
10717 10716 10714 10712 10710 10708 10706 10703 10701 10697 10694 10691 10687 10684 10680 10676 10672 10669 10666 10665 10663 10660 10659 10656 10654 10652 10650 10648 10646 10643 10642 10641 10639 10638 10637 10635 10634 10633 10632 10632 10631 10631 10630 10629 10629 10627 10626 10625 10624 10622 10621 10619 10618 10616 10614 10611 10608 10606 10604 10602 10600 10599 10600 10600 10600 10601 10602 10604 10606 10608 10611 10614 10617 10619 10622 10625 10627 10628 10628 10630 10632 10632 10632 10634 10636 10638 10638 10638
10717 10716 10714 10712 10711 10709 10707 10705 10702 10699 10696 10694 10691 10688 10685 10680 10676 10672 10669 10668 10668 10665 10663 10662 10659 10657 10655 10653 10651 10647 10646 10646 10644 10642 10641 10640 10639 10638 10637 10636 10635 10634 10634 10633 10631 10629 10628 10627 10626 10625 10623 10622 10620 10618 10615 10612 10609 10604 10601 10599 10597 10596 10595 10596 10597 10597 10598 10599 10602 10605 10609 10612 10614 10616 10619 10622 10623 10624 10624 10627 10631 10634 10634 10633 10635 10637 10637 10635
10717 10716 10714 10713 10711 10709 10708 10706 10704 10701 10699 10696 10694 10692 10689 10684 10680 10675 10673 10672 10673 10671 10669 10667 10664 10663 10661 10658 10656 10652 10651 10651 10648 10647 10646 10645 10644 10643 10641 10640 10638 10637 10635 10634 10633 10632 10631 10630 10630 10629 10627 10625 10623 10621 10618 10615 10611 10606 10601 10597 10594 10592 10591 10591 10592 10593 10594 10595 10598 10602 10606 10609 10611 10613 10616 10618 10619 10621 10623 10626 10630 10633 10631 10629 10631 10632 10631 10632
10717 10716 10715 10713 10711 10710 10709 10707 10705 10703 10700 10698 10696 10694 10691 10687 10683 10679 10676 10676 10676 10675 10673 10671 10670 10668 10666 10663 10660 10657 10656 10655 10653 10652 10651 10649 10648 10646 10645 10643 10641 10639 10639 10639 10639 10638 10637 10635 10634 10632 10631 10628 10625 10622 10618 10615 10611 10607 10602 10597 10592 10589 10587 10587 10588 10589 10591 10593 10595 10599 10603 10606 10608 10610 10613 10615 10617 10619 10623 10626 10629 10628 10625 10625 10627 10627 10626 10627
10717 10716 10715 10714 10712 10711 10710 10708 10707 10705 10702 10700 10698 10696 10692 10689 10686 10682 10680 10679 10678 10678 10676 10675 10674 10672 10669 10666 10663 10662 10661 10659 10657 10656 10654 10653 10651 10650 10648 10647 10646 10645 10645 10645 10644 10642 10641 10639 10637 10636 10634 10631 10627 10623 10619 10615 10612 10608 10603 10597 10592 10588 10584 10583 10583 10585 10588 10591 10593 10597 10600 10603 10606 10608 10610 10612 10614 10617 10619 10622 10623 10622 10621 10623 10625 10625 10624 10624
10717 10716 10715 10714 10713 10712 10710 10709 10708 10706 10705 10702 10700 10697 10694 10691 10688 10685 10683 10682 10682 10681 10680 10678 10677 10675 10672 10669 10668 10668 10666 10664 10662 10660 10658 10657 10656 10654 10654 10653 10652 10651 10649 10648 10647 10645 10644 10642 10640 10639 10636 10633 10629 10625 10621 10617 10613 10609 10605 10599 10594 10589 10584 10581 10581 10581 10584 10588 10592 10595 10598 10601 10604 10607 10609 10611 10613 10614 10616 10616 10617 10617 10617 10620 10622 10622 10622 10621
10717 10717 10716 10715 10714 10713 10712 10711 10710 10708 10706 10704 10701 10698 10696 10693 10690 10688 10687 10686 10686 10685 10683 10682 10680 10679 10676 10674 10673 10672 10670 10669 10667 10665 10663 10662 10661 10660 10659 10658 10657 10655 10653 10651 10649 10648 10646 10644 10643 10641 10638 10635 10632 10627 10623 10619 10616 10612 10608 10603 10598 10593 10588 10584 10581 10581 10582 10586 10591 10594 10598 10601 10604 10607 10609 10611 10612 10613 10614 10614 10614 10614 10615 10616 10618 10617 10617 10618
10717 10717 10716 10716 10715 10714 10713 10712 10711 10709 10708 10705 10702 10700 10698 10696 10693 10692 10691 10690 10689 10688 10686 10685 10684 10682 10681 10679 10678 10676 10675 10674 10671 10669 10668 10667 10666 10664 10663 10662 10660 10658 10656 10654 10652 10651 10650 10647 10645 10642 10639 10636 10633 10630 10627 10623 10620 10616 10612 10607 10604 10599 10594 10589 10585 10584 10584 10587 10590 10594 10598 10602 10604 10607 10609 10611 10612 10613 10613 10613 10613 10613 10613 10614 10615 10615 10615 10615
10717 10717 10717 10716 10716 10715 10714 10713 10712 10710 10708 10706 10704 10702 10700 10698 10696 10695 10694 10694 10693 10691 10689 10688 10687 10686 10684 10683 10682 10680 10679 10677 10674 10672 10672 10671 10670 10668 10667 10666 10664 10661 10658 10656 10655 10654 10652 10649 10646 10643 10641 10638 10637 10635 10632 10628 10624 10620 10616 10612 10610 10606 10602 10597 10593 10590 10590 10591 10594 10597 10600 10603 10606 10608 10610 10611 10611 10612 10612 10613 10613 10613 10613 10613 10613 10613 10613 10612
10717 10717 10717 10717 10716 10716 10715 10714 10713 10711 10710 10708 10706 10705 10703 10701 10700 10698 10698 10698 10696 10694 10693 10691 10690 10689 10688 10686 10685 10684 10682 10680 10678 10676 10675 10674 10673 10671 10670 10668 10666 10663 10661 10659 10658 10656 10653 10651 10648 10646 10644 10642 10641 10639 10636 10632 10628 10624 10621 10618 10614 10612 10609 10605 10601 10598 10597 10598 10599 10601 10603 10606 10608 10610 10612 10613 10613 10612 10613 10613 10613 10613 10613 10613 10612 10612 10611 10610
10716 10716 10717 10717 10716 10716 10716 10715 10714 10713 10712 10710 10709 10707 10705 10704 10703 10701 10701 10701 10699 10697 10695 10694 10694 10692 10690 10689 10688 10687 10685 10683 10681 10680 10679 10677 10676 10674 10673 10670 10668 10665 10664 10662 10660 10658 10656 10653 10651 10650 10648 10646 10645 10643 10640 10636 10632 10629 10626 10623 10619 10617 10614 10611 10608 10605 10604 10605 10606 10607 10608 10609 10611 10612 10614 10615 10615 10616 10616 10616 10616 10616 10616 10614 10613 10612 10610 10609
10716 10716 10716 10717 10717 10717 10716 10716 10715 10714 10713 10712 10711 10709 10708 10706 10705 10705 10705 10704 10702 10699 10698 10697 10697 10695 10693 10692 10692 10690 10688 10686 10684 10683 10681 10680 10678 10677 10675 10673 10671 10669 10667 10665 10663 10661 10659 10657 10655 10654 10652 10650 10648 10646 10644 10641 10636 10633 10631 10628 10625 10623 10620 10616 10614 10611 10610 10610 10610 10611 10612 10613 10614 10614 10615 10616 10617 10617 10618 10618 10618 10617 10616 10614 10613 10611 10609 10607
10715 10716 10716 10716 10717 10717 10717 10716 10716 10715 10715 10714 10713 10712 10710 10709 10708 10707 10707 10706 10704 10702 10701 10700 10699 10697 10696 10695 10695 10693 10691 10689 10687 10686 10685 10683 10681 10679 10677 10675 10674 10672 10670 10668 10666 10664 10662 10660 10658 10657 10655 10653 10651 10648 10646 10643 10639 10637 10635 10632 10630 10628 10625 10621 10619 10617 10615 10614 10614 10614 10615 10615 10616 10617 10617 10617 10617 10618 10618 10618 10617 10616 10615 10613 10612 10610 10607 10605
10714 10715 10716 10716 10717 10717 10718 10717 10717 10717 10716 10716 10715 10713 10712 10711 10710 10709 10709 10708 10706 10704 10703 10703 10702 10700 10699 10698 10698 10696 10694 10693 10691 10690 10688 10686 10684 10682 10680 10678 10676 10674 10673 10671 10669 10667 10665 10663 10661 10660 10658 10655 10652 10650 10647 10644 10641 10639 10637 10634 10632 10631 10628 10625 10623 10622 10621 10620 10619 10619 10619 10619 10619 10619 10618 10618 10618 10618 10618 10617 10616 10615 10614 10613 10611 10609 10607 10604
10714 10715 10716 10716 10717 10717 10718 10718 10718 10717 10717 10717 10716 10715 10714 10713 10712 10711 10711 10710 10708 10706 10706 10705 10704 10702 10702 10701 10700 10699 10697 10696 10694 10692 10690 10688 10687 10685 10683 10681 10679 10677 10676 10674 10672 10670 10668 10666 10664 10662 10659 10656 10654 10651 10649 10645 10643 10641 10639 10636 10634 10633 10631 10628 10626 10625 10625 10624 10623 10623 10622 10622 10621 10620 10620 10619 10619 10618 10617 10617 10616 10614 10613 10612 10610 10608 10605 10603
10713 10714 10715 10716 10717 10717 10718 10718 10718 10718 10718 10718 10717 10716 10715 10714 10713 10713 10713 10711 10710 10709 10707 10707 10706 10705 10704 10704 10703 10701 10700 10698 10696 10694 10692 10691 10689 10688 10686 10684 10682 10681 10679 10677 10675 10673 10671 10669 10666 10663 10661 10658 10656 10653 10651 10647 10645 10644 10641 10638 10636 10635 10633 10631 10629 10628 10627 10627 10626 10625 10624 10623 10622 10621 10621 10620 10619 10618 10617 10616 10614 10613 10611 10610 10608 10605 10603 10600
10712 10714 10715 10716 10716 10717 10718 10718 10718 10718 10718 10718 10718 10717 10716 10715 10715 10714 10714 10713 10712 10710 10709 10709 10708 10707 10706 10705 10704 10703 10702 10700 10699 10697 10695 10694 10692 10691 10689 10687 10685 10683 10681 10679 10677 10675 10673 10671 10668 10665 10663 10660 10658 10655 10652 10649 10648 10646 10643 10640 10639 10637 10635 10633 10632 10631 10630 10629 10628 10627 10625 10624 10623 10622 10621 10620 10619 10617 10616 10614 10613 10611 10609 10606 10604 10601 10599 10596
10711 10713 10714 10715 10716 10717 10718 10718 10718 10719 10719 10719 10719 10718 10717 10716 10716 10715 10715 10714 10713 10712 10710 10710 10709 10708 10708 10707 10706 10705 10703 10702 10701 10699 10698 10696 10694 10693 10691 10689 10687 10685 10683 10681 10679 10677 10675 10672 10670 10667 10665 10663 10660 10657 10654 10652 10650 10648 10645 10643 10641 10639 10637 10635 10634 10633 10632 10630 10629 10628 10627 10625 10624 10623 10621 10620 10618 10616 10614 10612 10610 10607 10605 10603 10600 10598 10595 10592
10710 10712 10713 10714 10715 10717 10717 10718 10718 10719 10719 10718 10719 10719 10718 10717 10716 10716 10716 10715 10714 10713 10712 10711 10710 10709 10709 10708 10707 10706 10705 10704 10703 10701 10700 10698 10696 10695 10693 10691 10689 10687 10685 10683 10681 10679 10677 10675 10672 10669 10667 10664 10662 10659 10657 10655 10653 10650 10647 10645 10643 10641 10639 10637 10635 10634 10633 10632 10630 10628 10627 10626 10624 10622 10620 10618 10616 10614 10612 10609 10607 10604 10602 10600 10597 10595 10592 10589
10709 10711 10712 10714 10715 10716 10717 10717 10718 10719 10719 10718 10718 10719 10718 10718 10717 10717 10716 10716 10715 10714 10713 10712 10712 10711 10710 10710 10709 10708 10707 10705 10704 10703 10701 10699 10698 10696 10694 10692 10691 10689 10687 10685 10683 10681 10679 10677 10675 10672 10669 10666 10664 10661 10658 10656 10654 10651 10648 10646 10644 10642 10640 10638 10636 10634 10633 10632 10630 10629 10627 10625 10623 10621 10619 10616 10614 10612 10610 10607 10605 10603 10600 10598 10595 10592 10590 10587
10707 10709 10711 10713 10714 10715 10716 10717 10718 10718 10718 10718 10718 10718 10718 10718 10718 10717 10717 10716 10715 10715 10714 10713 10713 10712 10711 10711 10710 10709 10708 10706 10705 10704 10702 10701 10699 10697 10695 10694 10692 10690 10688 10686 10684 10682 10680 10679 10677 10674 10672 10669 10666 10664 10661 10658 10656 10653 10650 10648 10645 10642 10640 10638 10636 10634 10633 10631 10630 10628 10626 10624 10622 10620 10618 10615 10613 10611 10609 10607 10604 10601 10599 10596 10594 10592 10589 10586
10705 10708 10710 10712 10713 10714 10715 10716 10717 10718 10718 10718 10718 10718 10718 10718 10718 10717 10717 10717 10716 10716 10715 10714 10713 10713 10712 10711 10711 10710 10708 10707 10706 10705 10703 10702 10700 10699 10697 10695 10693 10691 10689 10687 10685 10683 10682 10680 10678 10676 10674 10671 10668 10666 10663 10661 10658 10655 10652 10650 10647 10644 10641 10638 10636 10634 10632 10630 10628 10626 10624 10622 10620 10618 10616 10614 10612 10610 10608 10605 10603 10601 10598 10596 10593 10590 10587 10583
10704 10706 10708 10710 10712 10713 10714 10715 10716 10717 10717 10718 10718 10718 10718 10718 10718 10718 10717 10717 10717 10716 10716 10715 10714 10713 10712 10711 10711 10710 10709 10707 10706 10705 10704 10703 10701 10699 10698 10696 10694 10692 10691 10689 10687 10685 10683 10680 10678 10676 10674 10672 10669 10667 10664 10662 10659 10656 10654 10651 10649 10646 10643 10640 10637 10634 10632 10630 10627 10625 10623 10621 10619 10617 10615 10613 10611 10609 10607 10605 10603 10601 10598 10595 10591 10587 10583 10579
10703 10705 10707 10709 10711 10712 10713 10714 10715 10716 10717 10717 10717 10717 10718 10718 10718 10718 10717 10717 10717 10717 10716 10715 10714 10713 10713 10712 10711 10710 10709 10708 10707 10706 10704 10703 10701 10700 10698 10696 10694 10693 10691 10690 10688 10686 10684 10681 10679 10676 10674 10672 10670 10667 10665 10663 10660 10658 10655 10653 10651 10648 10645 10642 10639 10636 10633 10631 10629 10626 10624 10622 10620 10618 10616 10613 10611 10609 10607 10604 10602 10600 10596 10593 10589 10585 10581 10577
10701 10703 10705 10707 10709 10711 10712 10713 10714 10715 10716 10716 10717 10717 10717 10717 10717 10717 10717 10717 10717 10716 10716 10715 10715 10714 10713 10712 10711 10710 10709 10708 10707 10705 10704 10703 10702 10700 10698 10696 10695 10693 10692 10690 10688 10686 10684 10682 10680 10677 10675 10672 10670 10668 10666 10664 10661 10659 10657 10655 10652 10650 10647 10644 10641 10638 10635 10633 10631 10628 10626 10623 10621 10618 10616 10614 10611 10609 10606 10603 10600 10597 10594 10591 10587 10584 10580 10576
10700 10702 10704 10706 10708 10710 10711 10712 10713 10713 10714 10715 10716 10716 10716 10717 10717 10717 10717 10716 10716 10716 10716 10715 10715 10714 10713 10713 10712 10711 10709 10708 10707 10706 10704 10703 10701 10700 10699 10697 10695 10694 10692 10690 10688 10686 10684 10682 10680 10678 10676 10673 10671 10669 10667 10665 10663 10660 10657 10655 10652 10650 10647 10645 10642 10640 10637 10634 10632 10630 10627 10625 10622 10619 10616 10614 10611 10608 10604 10601 10598 10594 10591 10588 10585 10582 10579 10575
10698 10700 10702 10704 10706 10708 10709 10710 10711 10712 10713 10714 10714 10715 10715 10716 10716 10716 10716 10716 10716 10715 10715 10715 10714 10714 10713 10713 10712 10711 10710 10709 10707 10706 10704 10703 10701 10700 10698 10697 10696 10694 10692 10690 10688 10686 10684 10682 10680 10678 10676 10674 10672 10669 10667 10665 10663 10661 10658 10655 10653 10650 10648 10645 10643 10640 10637 10635 10632 10630 10628 10625 10622 10619 10616 10613 10610 10607 10603 10600 10597 10594 10591 10588 10585 10581 10577 10573
10696 10698 10700 10702 10704 10706 10707 10708 10709 10711 10711 10712 10713 10713 10714 10714 10715 10715 10715 10715 10715 10715 10715 10714 10714 10713 10713 10712 10711 10710 10709 10708 10707 10705 10704 10703 10701 10700 10698 10697 10695 10694 10692 10690 10688 10687 10685 10683 10680 10678 10676 10674 10672 10670 10667 10665 10662 10660 10659 10656 10653 10651 10648 10646 10643 10640 10637 10635 10632 10629 10626 10624 10621 10618 10615 10612 10609 10606 10603 10600 10597 10594 10591 10588 10584 10579 10575 10571
10694 10696 10698 10700 10702 10703 10704 10706 10708 10709 10709 10710 10711 10712 10713 10713 10713 10714 10714 10714 10714 10714 10714 10714 10713 10713 10712 10711 10710 10709 10708 10707 10706 10704 10703 10702 10701 10700 10698 10697 10695 10693 10692 10690 10688 10686 10684 10682 10680 10677 10675 10673 10671 10669 10667 10664 10662 10660 10658 10656 10653 10651 10648 10646 10644 10641 10638 10635 10632 10629 10626 10623 10620 10617 10615 10612 10609 10606 10603 10600 10597 10594 10591 10587 10582 10577 10573 10569
10691 10693 10695 10698 10699 10701 10702 10704 10706 10707 10707 10708 10709 10710 10711 10712 10712 10713 10713 10713 10713 10713 10713 10712 10712 10712 10711 10710 10709 10708 10707 10706 10705 10704 10702 10700 10699 10698 10697 10696 10694 10692 10691 10689 10687 10685 10683 10681 10679 10677 10674 10672 10670 10668 10666 10664 10661 10659 10657 10655 10652 10650 10648 10645 10643 10641 10639 10636 10633 10629 10626 10623 10619 10617 10614 10611 10608 10606 10603 10600 10596 10593 10589 10584 10580 10576 10571 10567
10688 10691 10693 10695 10697 10699 10700 10702 10703 10704 10705 10706 10707 10708 10709 10710 10711 10711 10711 10712 10712 10712 10711 10711 10711 10711 10710 10709 10708 10707 10706 10705 10704 10703 10701 10699 10698 10696 10695 10694 10693 10691 10689 10687 10686 10684 10681 10680 10678 10676 10674 10671 10669 10667 10665 10663 10660 10658 10656 10654 10651 10649 10647 10645 10643 10640 10638 10635 10632 10628 10624 10621 10618 10616 10613 10611 10608 10605 10602 10599 10595 10591 10587 10582 10578 10574 10570 10565
10686 10688 10691 10693 10695 10696 10698 10700 10700 10701 10703 10704 10705 10706 10707 10708 10709 10710 10710 10710 10711 10711 10710 10709 10709 10709 10709 10708 10708 10706 10705 10704 10703 10702 10701 10699 10697 10695 10693 10691 10690 10689 10687 10685 10684 10682 10680 10678 10676 10674 10673 10670 10668 10667 10665 10662 10659 10657 10654 10652 10650 10648 10646 10644 10642 10639 10636 10633 10630 10627 10623 10620 10617 10615 10612 10609 10606 10603 10600 10596 10593 10589 10585 10581 10577 10573 10568 10563